WetterOnline ( https://www.wetteronline.de )

Wetter aktuell Pforzheim

Aktuelles Wetter: Mühlacker (245m)

6-stündlich | Neueste Meldungen
Ortszeit Temperatur Wetter
Mi, 07.12. 1:00 2.8° C bedeckt
Di, 06.12. 19:00 3.6° C bedeckt
Di, 06.12. 13:00 3.8° C bedeckt
Di, 06.12. 7:00 2.8° C bedeckt
Di, 06.12. 1:00 2.2° C bedeckt
Mo, 05.12. 19:00 3.7° C Sprühregen
Mo, 05.12. 13:00 4.9° C bedeckt
Mo, 05.12. 7:00 2.7° C bedeckt
Ortszeit Temperatur Wetter
Mi, 07.12. 3:30 2.5° C bewölkt
Mi, 07.12. 3:20 2.5° C bewölkt
Mi, 07.12. 3:10 2.4° C bewölkt
Mi, 07.12. 3:00 2.3° C bedeckt
Mi, 07.12. 2:50 2.3° C bedeckt
Mi, 07.12. 2:40 2.2° C bedeckt
Mi, 07.12. 2:30 2.5° C bedeckt
Mi, 07.12. 2:00 2.8° C bedeckt
Mi, 07.12. 1:30 2.7° C bedeckt
Mi, 07.12. 1:00 2.8° C bedeckt
Mi, 07.12. 0:30 3.1° C bedeckt
Ortszeit Relative Feuchte Sichtweite
Mi, 07.12. 1:00 90% 24 km
Di, 06.12. 19:00 91% 35 km
Di, 06.12. 13:00 85% 40 km
Di, 06.12. 7:00 97% 13 km
Di, 06.12. 1:00 96% 1.9 km
Mo, 05.12. 19:00 95% 10 km
Mo, 05.12. 13:00 87% 21 km
Mo, 05.12. 7:00 96% 10 km
Ortszeit Relative Feuchte Sichtweite
Mi, 07.12. 3:30 93% 18 km
Mi, 07.12. 3:20 93% -
Mi, 07.12. 3:10 93% -
Mi, 07.12. 3:00 94% 19 km
Mi, 07.12. 2:50 94% -
Mi, 07.12. 2:40 94% -
Mi, 07.12. 2:30 94% 20 km
Mi, 07.12. 2:00 94% 19 km
Mi, 07.12. 1:30 91% 22 km
Mi, 07.12. 1:00 90% 24 km
Mi, 07.12. 0:30 87% 30 km
Ortszeit Niederschlagsmenge Niederschlagsart
Mi, 07.12. 1:00 0.1 l/m2 in 6 Std. Sprühregen
Di, 06.12. 19:00 0.1 l/m2 in 12 Std. -
Di, 06.12. 13:00 0.1 l/m2 in 6 Std. Regen
Di, 06.12. 7:00 0.1 l/m2 in 12 Std. Sprühregen
Di, 06.12. 1:00 0.1 l/m2 in 6 Std. Sprühregen
Mo, 05.12. 19:00 0.1 l/m2 in 12 Std. Sprühregen
Mo, 05.12. 13:00 0.1 l/m2 in 6 Std. Regen
Mo, 05.12. 7:00 0.0 l/m2 in 12 Std. -
Ortszeit Niederschlagsmenge Niederschlagsart
Mi, 07.12. 3:30 0.0 l/m2 in 30 Min -
Mi, 07.12. 3:20 keine Meldung -
Mi, 07.12. 3:10 keine Meldung -
Mi, 07.12. 3:00 0.0 l/m2 in 1 Std. -
Mi, 07.12. 2:50 keine Meldung -
Mi, 07.12. 2:40 keine Meldung -
Mi, 07.12. 2:30 0.0 l/m2 in 30 Min -
Mi, 07.12. 2:00 <0.05 l/m2 in 1 Std. Regen
Mi, 07.12. 1:30 <0.05 l/m2 in 30 Min Schneeregen
Mi, 07.12. 1:00 <0.05 l/m2 in 1 Std. Sprühregen
Mi, 07.12. 0:30 <0.05 l/m2 in 30 Min Schnee
Ortszeit Stärke Spitze Richtung
km/h Bft. km/h Grad Sektor
Mi, 07.12. 1:00 4 1 11 300° NW
Di, 06.12. 19:00 2 1 20 300° NW
Di, 06.12. 13:00 9 2 19 290° W
Di, 06.12. 7:00 0 0 4 - -
Di, 06.12. 1:00 0 0 7 - -
Mo, 05.12. 19:00 0 0 11 - -
Mo, 05.12. 13:00 4 1 11 330° NW
Mo, 05.12. 7:00 4 1 7 50° NO
Ortszeit Stärke Spitze Richtung
km/h Bft. km/h Grad Sektor
Mi, 07.12. 3:30 4 1 7 260° W
Mi, 07.12. 3:20 4 1 - 260° W
Mi, 07.12. 3:10 4 1 - 250° W
Mi, 07.12. 3:00 0 0 7 - -
Mi, 07.12. 2:50 2 1 - 280° W
Mi, 07.12. 2:40 0 0 - 290° W
Mi, 07.12. 2:30 0 0 7 - -
Mi, 07.12. 2:00 4 1 7 310° NW
Mi, 07.12. 1:30 4 1 7 300° NW
Mi, 07.12. 1:00 4 1 11 300° NW
Mi, 07.12. 0:30 7 2 11 300° NW
Ortszeit Untergrenze Bedeckung Gattung
total tief tief mittel hoch
Mi, 07.12. 1:00 540 m 8/8 8/8 - - -
Di, 06.12. 19:00 330 m 8/8 8/8 - - -
Di, 06.12. 13:00 360 m 8/8 8/8 - - -
Di, 06.12. 7:00 510 m 8/8 8/8 - - -
Di, 06.12. 1:00 1500 m 8/8 8/8 - - -
Mo, 05.12. 19:00 840 m 8/8 8/8 - - -
Mo, 05.12. 13:00 1290 m 8/8 8/8 - - -
Mo, 05.12. 7:00 540 m 8/8 8/8 - - -
Ortszeit Bedeckungsgrad in Achtel und Wolkenuntergrenze
Mi, 07.12. 3:30 7(1500m)
Mi, 07.12. 3:20 7(1500m)
Mi, 07.12. 3:10 7
Mi, 07.12. 3:00 8(1500m)
Mi, 07.12. 2:50 8(1500m)
Mi, 07.12. 2:40 8
Mi, 07.12. 2:30 2(480m) 3(1200m) 8(1500m)
Mi, 07.12. 2:00 7(510m) 7(1170m) 8(1500m)
Mi, 07.12. 1:30 6(1110m) 8(1500m)
Mi, 07.12. 1:00 1(540m) 8(1020m) 8(1500m)
Mi, 07.12. 0:30 2(330m) 6(750m) 8(870m)
Ortszeit Luftdruck NN (hPa) Tendenz (hPa in 3 Std.)
Mi, 07.12. 1:00 1019 0,0
Di, 06.12. 19:00 1019 + 0,1
Di, 06.12. 13:00 1019 - 0,2
Di, 06.12. 7:00 1020 - 0,7
Di, 06.12. 1:00 1021 - 0,3
Mo, 05.12. 19:00 1021 + 0,7
Mo, 05.12. 13:00 1020 + 0,3
Mo, 05.12. 7:00 1018 + 0,7
Ortszeit Luftdruck NN (hPa) Tendenz (hPa in 3 Std.)
Mi, 07.12. 3:30 1019 - 0,3
Mi, 07.12. 3:20 1019 keine Meldung
Mi, 07.12. 3:10 1019 keine Meldung
Mi, 07.12. 3:00 1019 - 0,1
Mi, 07.12. 2:50 1019 keine Meldung
Mi, 07.12. 2:40 1019 keine Meldung
Mi, 07.12. 2:30 1019 - 0,4
Mi, 07.12. 2:00 1019 - 0,3
Mi, 07.12. 1:30 1019 - 0,1
Mi, 07.12. 1:00 1019 0,0
Mi, 07.12. 0:30 1019 + 0,1
Ortszeit Schneehöhe (cm)
Mi, 07.12. 1:00 0
Di, 06.12. 19:00 0
Di, 06.12. 13:00 0
Di, 06.12. 7:00 0
Di, 06.12. 1:00 0
Mo, 05.12. 19:00 0
Mo, 05.12. 13:00 0
Mo, 05.12. 7:00 0
Ortszeit Schneehöhe (cm)
Mi, 07.12. 3:30 0
Mi, 07.12. 3:20 0
Mi, 07.12. 3:10 0
Mi, 07.12. 3:00 0
Mi, 07.12. 2:50 0
Mi, 07.12. 2:40 0
Mi, 07.12. 2:30 0
Mi, 07.12. 2:00 0
Mi, 07.12. 1:30 0
Mi, 07.12. 1:00 0
Mi, 07.12. 0:30 0
Link zu dieser Seite / Seite empfehlen

Das Wetter in ...